This is the latest recevied weather packets stored in our database for station/object WD9EKA. If no packets are shown the sender has not sent any weather packets the latest 10 day(s).
| Time | Temp. | Humidity | Pressure | Rain* | Wind** | Luminosity | Snow |
|---|---|---|---|---|---|---|---|
| 1777484074 | 16.11° C | 64% | 1009.3 hPa | 0 mm | - | - | - |
| 1777483761 | 16.67° C | 63% | 1009.3 hPa | 0 mm | - | - | - |
| 1777483441 | 16.11° C | 62% | 1009.2 hPa | 0 mm | - | - | - |
| 1777483114 | 16.67° C | 65% | 1009.3 hPa | 0 mm | - | - | - |
| 1777482801 | 16.67° C | 62% | 1009.4 hPa | 0 mm | - | - | - |
| 1777482481 | 16.67° C | 66% | 1009.1 hPa | 0 mm | - | - | - |
| 1777482154 | 16.11° C | 65% | 1009.2 hPa | 0 mm | - | - | - |
| 1777481841 | 16.11° C | 67% | 1009.3 hPa | 0 mm | - | - | - |
| 1777481522 | 16.67° C | 66% | 1009.3 hPa | 0 mm | - | - | - |
| 1777481194 | 16.11° C | 70% | 1009.4 hPa | 0 mm | - | - | - |
| 1777480882 | 16.11° C | 68% | 1009.3 hPa | 0 mm | - | - | - |
| 1777480561 | 16.11° C | 71% | 1009.1 hPa | 0 mm | - | - | - |
| 1777479922 | 16.11° C | 67% | 1009.3 hPa | 0 mm | - | - | - |
| 1777479601 | 15.56° C | 68% | 1009.4 hPa | 0 mm | - | - | - |
| 1777479274 | 16.67° C | 68% | 1009.7 hPa | 0 mm | - | - | - |
| 1777478962 | 15.56° C | 68% | 1009.4 hPa | 0 mm | - | - | - |
| 1777478641 | 15.56° C | 67% | 1009.4 hPa | 0 mm | - | - | - |
| 1777478001 | 15.56° C | 72% | 1009 hPa | 0 mm | - | - | - |
| 1777477681 | 15° C | 74% | 1009.1 hPa | 0 mm | - | - | - |
| 1777477354 | 15° C | 73% | 1008.9 hPa | 0 mm | - | - | - |
| 1777476721 | 15.56° C | 75% | 1009 hPa | 0 mm | - | - | - |
| 1777476082 | 15° C | 73% | 1009 hPa | 0 mm | - | - | - |
| 1777475761 | 15° C | 70% | 1008.8 hPa | 0 mm | - | - | - |
| 1777475434 | 15° C | 70% | 1008.7 hPa | 0 mm | - | - | - |
| 1777475122 | 15° C | 71% | 1008.6 hPa | 0 mm | - | - | - |
* Rain latest hour (hover to see other rain measurements)
** Current wind speed in m/s (hover to see current wind gust speed)